TVF27XY LFMT-LFPO

Flight info

Callsign TVF27XY
Flight time 1h 2m
Altitude 34000
Route NG DCT MOLEN DCT MTL DCT ETREK DCT MADOT DCT MOPEM DCT PIBAT
Aircraft A20N/M-SDE2E3FGHIRWXY/LB1

Departure

Time 2026-04-20 20:53
Airport Montpellier-Méditerranée Airport (LFMT)

Arrival

Time 2026-04-20 21:56
Airport Paris-Orly Airport (LFPO)
Time Latitude Longitude Altitude Speed Heading
2026-04-20 20:16 43.57929 3.96027 15 ft 0 kts 256°
2026-04-20 20:45 43.57929 3.96029 15 ft 2 kts 256°
2026-04-20 20:46 43.57933 3.96050 15 ft 2 kts 256°
2026-04-20 20:46 43.57936 3.96070 15 ft 2 kts 256°
2026-04-20 20:46 43.57939 3.96086 18 ft 0 kts 256°
2026-04-20 20:46 43.57942 3.96102 16 ft 2 kts 256°
2026-04-20 20:47 43.57945 3.96122 16 ft 2 kts 275°
2026-04-20 20:47 43.57942 3.96143 15 ft 2 kts 307°
2026-04-20 20:47 43.57931 3.96156 16 ft 2 kts 349°
2026-04-20 20:47 43.57923 3.96157 15 ft 0 kts 32°
2026-04-20 20:49 43.57925 3.96159 16 ft 1 kts 32°
2026-04-20 20:49 43.57943 3.96174 15 ft 5 kts 32°
2026-04-20 20:50 43.57982 3.96208 15 ft 9 kts 32°
2026-04-20 20:50 43.58036 3.96271 15 ft 10 kts 65°
2026-04-20 20:50 43.57997 3.96394 14 ft 18 kts 126°
2026-04-20 20:50 43.57914 3.96557 12 ft 23 kts 124°
2026-04-20 20:51 43.57819 3.96751 11 ft 25 kts 124°
2026-04-20 20:51 43.57718 3.96955 12 ft 26 kts 127°
2026-04-20 20:51 43.57613 3.97155 16 ft 26 kts 124°
2026-04-20 20:51 43.57512 3.97357 20 ft 26 kts 124°
2026-04-20 20:52 43.57403 3.97570 16 ft 28 kts 125°
2026-04-20 20:52 43.57287 3.97799 13 ft 30 kts 124°
2026-04-20 20:52 43.57184 3.98016 14 ft 19 kts 111°
2026-04-20 20:52 43.57240 3.98159 16 ft 19 kts 18°
2026-04-20 20:53 43.57386 3.97992 14 ft 54 kts 307°
2026-04-20 20:53 43.57733 3.97316 17 ft 116 kts 305°
2026-04-20 20:53 43.58290 3.96217 88 ft 156 kts 306°
2026-04-20 20:53 43.58884 3.94984 644 ft 156 kts 305°
2026-04-20 20:54 43.59489 3.93746 1282 ft 155 kts 310°
2026-04-20 20:54 43.60394 3.93093 1795 ft 149 kts
2026-04-20 20:54 43.61395 3.93594 2099 ft 165 kts 37°
2026-04-20 20:54 43.62227 3.94814 2438 ft 186 kts 52°
2026-04-20 20:55 43.63028 3.96332 2790 ft 212 kts 57°
2026-04-20 20:55 43.63844 3.98173 3273 ft 238 kts 58°
2026-04-20 20:55 43.64752 4.00222 3826 ft 262 kts 57°
2026-04-20 20:55 43.65781 4.02392 4603 ft 274 kts 54°
2026-04-20 20:56 43.66885 4.04583 5569 ft 279 kts 53°
2026-04-20 20:56 43.68010 4.06757 6552 ft 284 kts 53°
2026-04-20 20:56 43.69178 4.08992 7493 ft 288 kts 52°
2026-04-20 20:56 43.70362 4.11255 8450 ft 292 kts 52°
2026-04-20 20:57 43.71562 4.13553 9415 ft 296 kts 52°
2026-04-20 20:57 43.72764 4.15854 10283 ft 303 kts 51°
2026-04-20 20:57 43.74043 4.18300 10701 ft 326 kts 51°
2026-04-20 20:57 43.75416 4.20922 11093 ft 346 kts 51°
2026-04-20 20:58 43.76847 4.23662 11845 ft 353 kts 51°
2026-04-20 20:58 43.78292 4.26434 12710 ft 357 kts 51°
2026-04-20 20:58 43.79755 4.29238 13546 ft 362 kts 51°
2026-04-20 20:58 43.81241 4.32081 14310 ft 366 kts 51°
2026-04-20 20:59 43.82746 4.34961 15042 ft 370 kts 51°
2026-04-20 20:59 43.84292 4.37834 15778 ft 373 kts 46°
2026-04-20 20:59 43.86175 4.40291 16481 ft 372 kts 32°
2026-04-20 20:59 43.88417 4.42086 17186 ft 371 kts 19°
2026-04-20 21:00 43.90800 4.43368 17890 ft 374 kts 17°
2026-04-20 21:00 43.93242 4.44669 18555 ft 378 kts 17°
2026-04-20 21:00 43.95703 4.45989 19198 ft 381 kts 17°
2026-04-20 21:00 43.98201 4.47332 19822 ft 385 kts 17°
2026-04-20 21:01 44.00718 4.48688 20454 ft 389 kts 17°
2026-04-20 21:01 44.03256 4.50056 21070 ft 392 kts 17°
2026-04-20 21:01 44.05784 4.51420 21674 ft 396 kts 16°
2026-04-20 21:01 44.08371 4.52803 22293 ft 399 kts 16°
2026-04-20 21:02 44.10987 4.54189 22893 ft 403 kts 16°
2026-04-20 21:02 44.13611 4.55577 23508 ft 406 kts 15°
2026-04-20 21:02 44.16279 4.56991 24005 ft 410 kts 15°
2026-04-20 21:02 44.18957 4.58413 24509 ft 413 kts 15°
2026-04-20 21:03 44.21615 4.59828 25002 ft 415 kts 15°
2026-04-20 21:03 44.24321 4.61269 25514 ft 418 kts 15°
2026-04-20 21:03 44.27049 4.62725 25952 ft 421 kts 15°
2026-04-20 21:03 44.29807 4.64198 26426 ft 423 kts 15°
2026-04-20 21:04 44.32569 4.65674 26906 ft 426 kts 15°
2026-04-20 21:04 44.35311 4.67143 27374 ft 428 kts 15°
2026-04-20 21:04 44.38104 4.68639 27801 ft 431 kts 15°
2026-04-20 21:04 44.40917 4.70147 28215 ft 433 kts 15°
2026-04-20 21:05 44.43739 4.71661 28620 ft 436 kts 15°
2026-04-20 21:05 44.46583 4.73189 29009 ft 438 kts 15°
2026-04-20 21:05 44.49438 4.74725 29379 ft 441 kts 15°
2026-04-20 21:05 44.52328 4.76198 29785 ft 439 kts 10°
2026-04-20 21:06 44.55301 4.77061 30151 ft 434 kts
2026-04-20 21:06 44.58303 4.77218 30445 ft 429 kts 351°
2026-04-20 21:06 44.61215 4.76729 30755 ft 427 kts 345°
2026-04-20 21:06 44.64167 4.76065 31081 ft 429 kts 346°
2026-04-20 21:07 44.67122 4.75415 31451 ft 430 kts 346°
2026-04-20 21:07 44.70080 4.74767 31835 ft 429 kts 346°
2026-04-20 21:07 44.73037 4.74116 32247 ft 429 kts 346°
2026-04-20 21:07 44.75945 4.73473 32686 ft 427 kts 345°
2026-04-20 21:08 44.78903 4.72815 33064 ft 427 kts 345°
2026-04-20 21:08 44.81838 4.72162 33451 ft 427 kts 345°
2026-04-20 21:08 44.84771 4.71508 33821 ft 427 kts 345°
2026-04-20 21:08 44.87706 4.70853 33941 ft 425 kts 345°
2026-04-20 21:09 44.90593 4.70210 34048 ft 424 kts 345°
2026-04-20 21:09 44.93501 4.69560 34029 ft 422 kts 345°
2026-04-20 21:09 44.99320 4.68256 34033 ft 423 kts 345°
2026-04-20 21:10 45.05144 4.66948 34034 ft 423 kts 345°
2026-04-20 21:10 45.10961 4.65640 34049 ft 422 kts 345°
2026-04-20 21:11 45.16715 4.64344 34033 ft 420 kts 345°
2026-04-20 21:11 45.22471 4.63040 34029 ft 418 kts 345°
2026-04-20 21:12 45.28212 4.61724 34051 ft 422 kts 345°
2026-04-20 21:12 45.34001 4.60400 34052 ft 419 kts 345°
2026-04-20 21:13 45.39769 4.59077 34056 ft 420 kts 345°
2026-04-20 21:13 45.45505 4.57761 34046 ft 418 kts 345°
2026-04-20 21:14 45.51255 4.56436 34048 ft 418 kts 345°
2026-04-20 21:14 45.57001 4.55111 34048 ft 418 kts 345°
2026-04-20 21:15 45.62748 4.53782 34053 ft 418 kts 345°
2026-04-20 21:15 45.68448 4.52462 34050 ft 417 kts 345°
2026-04-20 21:16 45.74186 4.51131 34060 ft 416 kts 345°
2026-04-20 21:16 45.79914 4.49799 34050 ft 416 kts 345°
2026-04-20 21:17 45.85589 4.48477 34049 ft 415 kts 345°
2026-04-20 21:17 45.91299 4.47139 34057 ft 417 kts 345°
2026-04-20 21:18 45.97010 4.45803 34062 ft 418 kts 345°
2026-04-20 21:18 46.02753 4.44458 34063 ft 418 kts 345°
2026-04-20 21:19 46.08516 4.43103 34077 ft 418 kts 345°
2026-04-20 21:20 46.17121 4.41076 34063 ft 419 kts 345°
2026-04-20 21:20 46.21947 4.39936 34066 ft 419 kts 345°
2026-04-20 21:21 46.28636 4.38354 34096 ft 418 kts 345°
2026-04-20 21:21 46.34393 4.36987 34062 ft 418 kts 345°
2026-04-20 21:22 46.40099 4.35630 34060 ft 417 kts 345°
2026-04-20 21:22 46.45838 4.34262 34061 ft 417 kts 345°
2026-04-20 21:23 46.51548 4.32899 34068 ft 417 kts 345°
2026-04-20 21:23 46.57160 4.31555 34065 ft 417 kts 345°
2026-04-20 21:24 46.62886 4.30181 34066 ft 417 kts 345°
2026-04-20 21:24 46.67654 4.29036 34067 ft 417 kts 345°
2026-04-20 21:25 46.73378 4.27657 34072 ft 417 kts 345°
2026-04-20 21:25 46.79101 4.26201 34071 ft 415 kts 341°
2026-04-20 21:26 46.84538 4.23596 34080 ft 409 kts 333°
2026-04-20 21:26 46.89830 4.20507 34095 ft 410 kts 334°
2026-04-20 21:27 46.95140 4.17422 34095 ft 410 kts 333°
2026-04-20 21:27 47.00401 4.14344 34047 ft 409 kts 333°
2026-04-20 21:27 47.03042 4.12795 33789 ft 408 kts 333°
2026-04-20 21:28 47.05631 4.11125 33513 ft 403 kts 326°
2026-04-20 21:28 47.07889 4.08727 33241 ft 400 kts 315°
2026-04-20 21:28 47.09958 4.05977 32976 ft 401 kts 315°
2026-04-20 21:28 47.12021 4.03232 32719 ft 400 kts 315°
2026-04-20 21:29 47.14064 4.00522 32459 ft 400 kts 315°
2026-04-20 21:29 47.16128 3.97785 32202 ft 400 kts 315°
2026-04-20 21:29 47.18198 3.95040 31938 ft 400 kts 315°
2026-04-20 21:29 47.20269 3.92290 31696 ft 401 kts 315°
2026-04-20 21:30 47.22337 3.89541 31436 ft 401 kts 315°
2026-04-20 21:30 47.24412 3.86777 31189 ft 401 kts 315°
2026-04-20 21:30 47.26480 3.84022 30946 ft 401 kts 315°
2026-04-20 21:30 47.28529 3.81287 30699 ft 400 kts 315°
2026-04-20 21:31 47.30592 3.78532 30548 ft 398 kts 315°
2026-04-20 21:31 47.34700 3.73034 30336 ft 399 kts 315°
2026-04-20 21:31 47.36754 3.70281 30216 ft 398 kts 315°
2026-04-20 21:32 47.38801 3.67535 30079 ft 397 kts 315°
2026-04-20 21:32 47.40846 3.64788 29936 ft 396 kts 314°
2026-04-20 21:32 47.42858 3.62082 29799 ft 395 kts 314°
2026-04-20 21:32 47.44892 3.59344 29653 ft 394 kts 314°
2026-04-20 21:33 47.46914 3.56619 29508 ft 394 kts 314°
2026-04-20 21:33 47.48937 3.53890 29360 ft 393 kts 314°
2026-04-20 21:33 47.50959 3.51158 29231 ft 392 kts 314°
2026-04-20 21:33 47.52977 3.48430 29093 ft 391 kts 314°
2026-04-20 21:34 47.54960 3.45747 28984 ft 390 kts 314°
2026-04-20 21:34 47.56962 3.43034 28847 ft 387 kts 314°
2026-04-20 21:34 47.58949 3.40339 28711 ft 387 kts 314°
2026-04-20 21:34 47.60913 3.37671 28579 ft 387 kts 314°
2026-04-20 21:35 47.62894 3.34978 28425 ft 386 kts 314°
2026-04-20 21:35 47.64878 3.32278 28285 ft 386 kts 314°
2026-04-20 21:35 47.66860 3.29578 28154 ft 385 kts 314°
2026-04-20 21:35 47.68829 3.26892 28022 ft 384 kts 314°
2026-04-20 21:36 47.70797 3.24205 27887 ft 384 kts 314°
2026-04-20 21:36 47.72739 3.21552 27755 ft 383 kts 314°
2026-04-20 21:36 47.74701 3.18867 27575 ft 382 kts 314°
2026-04-20 21:36 47.76657 3.16186 27025 ft 384 kts 314°
2026-04-20 21:37 47.78639 3.13466 26051 ft 390 kts 314°
2026-04-20 21:37 47.80634 3.10727 25390 ft 388 kts 314°
2026-04-20 21:37 47.82597 3.08033 24930 ft 380 kts 314°
2026-04-20 21:37 47.84532 3.05375 24342 ft 376 kts 314°
2026-04-20 21:38 47.86444 3.02743 23793 ft 372 kts 314°
2026-04-20 21:38 47.88306 3.00175 23191 ft 367 kts 314°
2026-04-20 21:38 47.90169 2.97605 22628 ft 361 kts 314°
2026-04-20 21:38 47.91997 2.95081 22080 ft 356 kts 314°
2026-04-20 21:39 47.93805 2.92584 21534 ft 351 kts 314°
2026-04-20 21:39 47.95585 2.90119 21012 ft 347 kts 314°
2026-04-20 21:39 47.97350 2.87672 20481 ft 343 kts 314°
2026-04-20 21:39 47.99089 2.85255 19961 ft 340 kts 315°
2026-04-20 21:40 48.00796 2.82883 19448 ft 338 kts 315°
2026-04-20 21:40 48.02518 2.80490 18938 ft 336 kts 315°
2026-04-20 21:40 48.04223 2.78118 18392 ft 335 kts 315°
2026-04-20 21:40 48.05926 2.75748 17879 ft 332 kts 315°
2026-04-20 21:41 48.07609 2.73403 17375 ft 328 kts 315°
2026-04-20 21:41 48.09272 2.71084 16876 ft 325 kts 315°
2026-04-20 21:41 48.10906 2.68801 16390 ft 323 kts 316°
2026-04-20 21:41 48.12548 2.66506 15898 ft 320 kts 316°
2026-04-20 21:42 48.14176 2.64230 15412 ft 318 kts 316°
2026-04-20 21:42 48.15794 2.61964 14930 ft 317 kts 316°
2026-04-20 21:42 48.17380 2.59742 14455 ft 315 kts 316°
2026-04-20 21:42 48.18977 2.57501 13985 ft 314 kts 316°
2026-04-20 21:43 48.20572 2.55263 13481 ft 312 kts 316°
2026-04-20 21:43 48.22153 2.53042 13009 ft 310 kts 316°
2026-04-20 21:43 48.23721 2.50837 12543 ft 307 kts 316°
2026-04-20 21:43 48.25274 2.48651 12081 ft 305 kts 316°
2026-04-20 21:44 48.26816 2.46479 11617 ft 303 kts 316°
2026-04-20 21:44 48.28415 2.44224 11147 ft 330 kts 316°
2026-04-20 21:44 48.30141 2.41788 10699 ft 345 kts 316°
2026-04-20 21:44 48.31858 2.39363 10603 ft 337 kts 316°
2026-04-20 21:45 48.33537 2.36990 10461 ft 321 kts 316°
2026-04-20 21:45 48.35116 2.34756 10278 ft 301 kts 316°
2026-04-20 21:45 48.36594 2.32664 10067 ft 283 kts 316°
2026-04-20 21:45 48.38014 2.30650 9486 ft 278 kts 316°
2026-04-20 21:46 48.39381 2.28708 9104 ft 268 kts 317°
2026-04-20 21:46 48.40708 2.26824 8764 ft 257 kts 317°
2026-04-20 21:46 48.41983 2.25011 8436 ft 247 kts 317°
2026-04-20 21:46 48.43224 2.23248 8149 ft 256 kts 317°
2026-04-20 21:47 48.44600 2.21294 7973 ft 280 kts 317°
2026-04-20 21:47 48.46019 2.19273 7952 ft 279 kts 317°
2026-04-20 21:47 48.47399 2.17304 7888 ft 273 kts 317°
2026-04-20 21:47 48.48771 2.15347 7358 ft 272 kts 317°
2026-04-20 21:48 48.50137 2.13399 7014 ft 262 kts 317°
2026-04-20 21:48 48.51416 2.11568 6871 ft 245 kts 317°
2026-04-20 21:48 48.52621 2.09844 6775 ft 232 kts 317°
2026-04-20 21:48 48.53763 2.08211 6536 ft 222 kts 318°
2026-04-20 21:49 48.54871 2.06625 6096 ft 223 kts 319°
2026-04-20 21:49 48.56006 2.04999 5755 ft 225 kts 319°
2026-04-20 21:49 48.57146 2.03367 5434 ft 225 kts 319°
2026-04-20 21:49 48.58267 2.01828 5252 ft 210 kts 328°
2026-04-20 21:50 48.59552 2.01093 5035 ft 194 kts
2026-04-20 21:50 48.60803 2.01613 4829 ft 187 kts 37°
2026-04-20 21:50 48.61725 2.02955 4627 ft 184 kts 55°
2026-04-20 21:50 48.62404 2.04575 4398 ft 181 kts 62°
2026-04-20 21:51 48.62992 2.06243 4167 ft 178 kts 63°
2026-04-20 21:51 48.63573 2.07884 3933 ft 176 kts 63°
2026-04-20 21:51 48.64152 2.09517 3698 ft 175 kts 63°
2026-04-20 21:51 48.64725 2.11135 3469 ft 173 kts 62°
2026-04-20 21:52 48.65292 2.12736 3231 ft 171 kts 63°
2026-04-20 21:52 48.65852 2.14318 2996 ft 170 kts 62°
2026-04-20 21:52 48.66411 2.15894 2761 ft 169 kts 62°
2026-04-20 21:52 48.66959 2.17442 2541 ft 170 kts 62°
2026-04-20 21:53 48.67506 2.18986 2327 ft 161 kts 62°
2026-04-20 21:53 48.68009 2.20408 2106 ft 145 kts 62°
2026-04-20 21:53 48.68453 2.21664 1914 ft 125 kts 61°
2026-04-20 21:53 48.68841 2.22762 1744 ft 117 kts 61°
2026-04-20 21:54 48.69228 2.23853 1570 ft 117 kts 61°
2026-04-20 21:54 48.69619 2.24958 1390 ft 120 kts 60°
2026-04-20 21:54 48.70008 2.26061 1227 ft 122 kts 60°
2026-04-20 21:54 48.70408 2.27194 1052 ft 121 kts 60°
2026-04-20 21:55 48.70804 2.28322 879 ft 120 kts 59°
2026-04-20 21:55 48.71202 2.29435 718 ft 120 kts 60°
2026-04-20 21:55 48.71594 2.30548 575 ft 120 kts 60°
2026-04-20 21:55 48.71986 2.31658 411 ft 120 kts 60°
2026-04-20 21:56 48.72383 2.32777 309 ft 117 kts 59°
2026-04-20 21:56 48.72731 2.33758 305 ft 96 kts 63°
2026-04-20 21:56 48.72952 2.34389 300 ft 37 kts 63°
2026-04-20 21:56 48.73004 2.34711 299 ft 25 kts 83°
2026-04-20 21:57 48.73031 2.34963 297 ft 10 kts 82°
2026-04-20 21:57 48.73033 2.34992 297 ft 4 kts 82°
2026-04-20 21:57 48.73039 2.35048 299 ft 7 kts 82°
2026-04-20 21:57 48.73038 2.35148 297 ft 12 kts 101°
2026-04-20 21:58 48.72991 2.35265 299 ft 15 kts 137°
2026-04-20 21:58 48.72915 2.35334 298 ft 12 kts 129°
2026-04-20 21:58 48.72858 2.35433 298 ft 14 kts 163°
2026-04-20 21:58 48.72764 2.35471 301 ft 16 kts 165°
2026-04-20 21:59 48.72651 2.35518 300 ft 15 kts 163°
2026-04-20 21:59 48.72600 2.35605 298 ft 10 kts 95°
2026-04-20 21:59 48.72607 2.35721 301 ft 10 kts 74°
2026-04-20 21:59 48.72620 2.35796 300 ft 0 kts 76°
2026-04-20 22:00 48.72621 2.35804 296 ft 0 kts 75°